{"data":{"norad_id":59434,"intl_designator":"2024-065P","name":"STARLINK-31580","alt_names":[],"object_type":"PAYLOAD","status":"ACTIVE","operator":null,"country":"US","launch_date":"2024-04-07","launch_site_code":"AFWTR","launch_vehicle":null,"mission":null,"orbit_class":"UNKNOWN","rcs_meters":null,"size_class":null,"mass_kg":null,"dimensions":null,"purposes":["comms"],"wikipedia_slug":null,"has_3d_model":false,"image_url":null,"decayed_at":null,"tle_current":{"epoch":"2026-05-25T02:52:16.639392Z","epoch_age_seconds":58715,"freshness":"FRESH","line1":"1 59434U 24065P   26145.11963703 -.00000261  00000+0  33263-5 0  9991","line2":"2 59434  53.1612 288.6226 0001139  91.8700 268.2431 15.30194664120602","mean_motion":15.30194664,"eccentricity":0.0001139,"inclination_deg":53.1612,"raan_deg":288.6226,"arg_perigee_deg":91.87,"mean_anomaly_deg":268.2431,"bstar":3.3263e-6,"rev_number":12060,"period_min":94.105673864773,"perigee_km":474.4504031844,"apogee_km":476.01160041521,"semimajor_km":6853.3680017998,"source":"CELESTRAK","updated_at":"2026-05-25T13:38:18.946490Z"}}}